Location: Mansfield Dam
(30.3944°N, 97.9097°W)
Time: 04:21:44
(UTC-06:00)

Daily predictions for brighter satellites

Satellite Brightness Start Highest point End
(mag) Time Altitude Azimuth Time Altitude Azimuth Time Altitude Azimuth
Lacrosse 5 4.4 04:10:00 15° NE 04:10:00 15° NE 04:10:54 10° NE
USA 234 4.1 04:06:09 10° NE 04:10:15 42° NNE 04:10:15 42° NNE
GEOS 3 Rocket 4.1 04:44:10 10° SE 04:49:07 56° NE 04:49:55 50° NNE
Cosmos 1190 Rocket 4.3 04:57:30 25° N 05:00:34 66° ENE 05:05:49 10° SSE
ATLAS 5 CENTAUR R/B 3.9 05:04:11 16° N 05:04:11 16° N 05:05:30 10° N
Sich 1 Rocket 3.9 04:59:58 10° N 05:04:28 64° E 05:08:53 10° SSE
Meteor 2-10 Rocket 3.5 05:02:21 30° S 05:04:51 73° E 05:09:51 10° NNE
Cosmos 1908 Rocket 3.9 05:02:28 10° N 05:06:55 65° E 05:11:20 10° SSE
Cosmos 1943 Rocket 3.2 05:09:50 30° NNW 05:09:50 30° NNW 05:12:59 10° N
Okean-O 2.9 05:09:47 10° N 05:13:21 56° N 05:13:21 56° N
deb Centaur AC-2 4.0 05:16:33 69° SSW 05:16:40 69° SSW 05:21:02 10° ESE
CZ-4C R/B 1.9 05:18:41 58° WSW 05:19:34 69° WNW 05:25:11 10° NNE
ATLAS CENTAUR R/B 4.2 05:15:19 26° NW 05:19:53 82° SW 05:41:31 10° SSE
Atlas 2A Centaur Rocket 2.8 05:25:07 28° S 05:25:07 28° S 05:26:37 10° SE
Cosmos 1244 Rocket 4.4 05:20:22 10° N 05:26:36 90° WNW 05:32:45 10° S
Cosmos 1420 Rocket 3.9 05:23:07 10° SSW 05:28:17 84° ESE 05:33:29 10° NNE
NOAA 6 3.9 05:27:12 10° NNE 05:32:23 88° W 05:37:30 10° SSW
Okean 2 Rocket 3.8 05:30:56 10° N 05:35:15 54° E 05:39:32 10° SSE
Meteor 1-26 Rocket 4.4 05:33:17 10° SSW 05:38:49 49° W 05:44:16 10° N
Cosmos 1703 Rocket 4.2 05:41:24 34° WNW 05:41:24 34° WNW 05:44:44 10° NNW
Thor Agena Rocket 3.4 05:35:59 10° S 05:41:13 73° WSW 05:46:24 10° NNW
S3M 3.9 05:39:53 10° S 05:46:15 75° W 05:52:33 10° N
OAO 1 4.5 05:45:54 28° WSW 05:48:54 87° NNW 05:54:27 10° ENE
Lacrosse 5 3.7 05:49:14 15° NW 05:49:19 15° NW 05:52:10 10° N
Cosmos 1607 4.2 05:44:18 10° SSW 05:50:21 71° ESE 05:56:28 10° NNE
ADEOS II 4.2 05:48:11 10° NW 05:48:13 10° NW 05:48:13 10° NW
Delta 2 Rocket 3.8 05:49:56 29° W 05:52:24 70° NNW 05:57:47 10° ENE
Cosmos 1452 Rocket 4.2 05:51:03 25° WSW 05:52:49 31° WNW 05:57:29 10° N
Meteor 1-25 Rocket 4.4 05:47:32 10° N 05:53:24 79° E 05:59:13 10° S
Cosmos 1553 Rocket 4.0 05:48:06 10° SSW 05:54:07 60° W 06:00:19 10° N
CZ-4 R/B 4.2 05:54:45 10° NE 05:58:01 22° E 06:01:13 10° SSE
Cosmos 1023 Rocket 4.5 06:00:44 10° NNW 06:06:00 84° WSW 06:11:16 10° SSE
COSMO-SKYMED 1 2.5 06:01:56 10° S 06:06:14 72° WSW 06:10:34 10° NNW
Cosmos 2219 3.6 06:00:39 10° NNW 06:06:18 68° ENE 06:11:52 10° SSE
Meteor 1-10 Rocket 4.1 06:02:53 10° S 06:08:25 78° W 06:14:02 10° N
Meteor 2-11 Rocket 4.4 06:05:45 10° S 06:11:48 74° W 06:17:56 10° N
ATLAS 3B R/B 2.9 06:09:30 10° SW 06:17:07 73° WNW 06:24:31 10° NNE
USA 81 4.1 06:13:24 10° SSW 06:18:33 55° W 06:23:43 10° N
BREEZE-M DEB (TANK) 4.1 06:22:46 10° SW 06:23:10 10° SW 06:23:36 10° SSW
DELTA 2 R/B (2) 3.8 06:26:13 13° W 06:28:05 38° NNW 06:29:51 10° NE
SJ-12 4.4 06:24:55 10° NNE 06:29:01 67° ESE 06:33:05 10° S
Cosmos 1709 Rocket 4.4 06:25:33 10° N 06:31:38 70° E 06:37:45 10° SSE
Cosmos 2315 Rocket 4.1 06:29:37 10° S 06:36:00 83° W 06:42:23 10° N
Cosmos 1140 Rocket 3.9 06:31:21 10° NNW 06:36:13 40° W 06:41:05 10° S
Cosmos 1697 Rocket 4.5 06:36:13 10° S 06:41:24 38° ESE 06:46:35 10° NE
SMAP 3.5 06:36:49 10° NNE 06:41:28 68° E 06:46:04 10° S
